Погода Баку

Погода Баку : погода сейчас, прогноз погоды и архив. Всё, что Вы хотите узнать о погоде Баку!

Поиск расширенной информации на нашем сайте:

Другие новости

Новости СМИ2

Главная страница сайта

Новости сайта

03.07.2017

Напоминаем, что на нашем специализированном сайте Метеоцентр.Азия вы можете получить высокодетализированные автоматические прогнозы погоды по пунктам России, СНГ и мира в авиационном формате (включающие направление и скорость ветра, видимость, явления погоды, количество и форму облачности, нижнюю и верхнюю границу облачности).


Погода Баку - сегодня

Время (UTC), дата Ветер
(°,м/с) 
Видим.   Явления Облачность Т
(°С)
Тd
(°С)
f(%) Тe
(°С)
Pmin
(гПа)
dP
(гПа)
Po
(мм)
O2
(г/м3)
Тmin Tmax R s Состояние
почвы
12 13.08.18 320 (СЗ) 10  10 км    10/0 средняя 
[Ac As]
+27 +18.1 58 +41  1010.4  -0.4  758  273           
15 13.08.18 320 (СЗ) 10 км    9/4 600 м средняя 
[Sc|Ac As]
+24.8 +17.3 63 +37  1010.9  0.5  758  275           
21 13.08.18 300 (СЗ) 10 км    8/4 600 м средняя 
[Sc|Ac As]
+24.1 +17.2 65 +37  1012  -0.1  759  277           
00 14.08.18 310 (СЗ) 10  10 км    8/4 600 м средняя 
[Sc|Ac As]
+23.8 +18.3 71 +38  1012.1  0.1  759  276           
03 14.08.18 320 (СЗ) 10 км    8/4 600 м средняя 
[Sc|Ac As]
+24.3 +18.3 69 +39  1012.9  0.8  760  276           
06 14.08.18 340 (С) 10 км    8/0 
+26.5 +17.8 59 +40  1013.9  761  275  +23.6         
09 14.08.18 340 (С) 10 км    10/0 средняя 
[Ac As]
+26.8 +19 62 +43  1013.5  -0.4  760  274           
12 14.08.18 310 (СЗ) 10  10 км    10/0 средняя 
[Ac As]
+26.5 +19 63 +43  1012.9  -0.6  760  274           
15 14.08.18 310 (СЗ) 10 км    8/0 средняя 
[Ac As]
+25.7 +17.7 61 +39  1013.1  0.2  760  275           
18 14.08.18 300 (СЗ) 10 км    10/3 1000 м кучево-дожд., средняя 
[Cb cap|Ac As]
+24.9 +17.4 63 +38  1013.5  0.4  760  276    +28.8       
21 14.08.18 330 (СЗ) 10 км    8/3 1000 м кучево-дожд., средняя 
[Cb cap|Ac As]
+24.9 +16.9 61 +37  1013.2  -0.3  760  276           
00 15.08.18 330 (СЗ) 10 км    10/3 1000 м кучево-дожд., средняя 
[Cb cap|Ac As]
+24.5 +16.2 60 +35  1012.7  -0.5  760  277           
03 15.08.18 330 (СЗ) 10 км    10/3 1000 м кучево-дожд., средняя 
[Cb cap|Ac As]
+23.9 +17.1 66 +36  1013.5  0.8  760  277           
09 15.08.18 320 (СЗ) 10 км    8/0 средняя 
[Ac As]
+26.9 +15.9 51 +37  1014.2  -0.4  761  275           
12 15.08.18 330 (СЗ) 10  10 км    8/0 средняя 
[Ac As]
+27.5 +16.8 52 +39  1013.6  -0.6  760  274           
15 15.08.18 310 (СЗ) 10 км    8/0 средняя 
[Ac As]
+24.8 +16.5 60 +36  1014.2  0.6  761  277           
21 15.08.18 300 (СЗ) 10 км    10/0 средняя 
[Ac As]
+23.8 +17.4 67 +37  1015  -0.1  761  277           
00 16.08.18 290 (З) 10 км    10/0 средняя 
[Ac As]
+23.4 +17.1 68 +36  1014.3  -0.7  761  278           
03 16.08.18 350 (С) 10 км    10/0 средняя 
[Ac As]
+23.3 +18.1 73 +37  1014.9  0.6  761  278           
06 16.08.18 320 (СЗ) 10 км    ясно 
+26.8 +18.1 59 +41  1015.1  0.2  761  274  +22.4         
09 16.08.18 020 (С) 10 км    ясно 
+28.9 +17.2 49 +41  1013.7  -1.4  760  273           
12 16.08.18 020 (С) 10 км    ясно 
+27.9 +17.4 53 +41  1012.2  -1.5  759  273           
15 16.08.18 360 (С) 10 км    ясно 
+26.3 +18.7 63 +42  1011.8  -0.4  759  274           
18 16.08.18 290 (З) 10 км    ясно 
+24.2 +20.4 79 +43  1012.7  0.9  760  276    +29.8       
21 16.08.18 260 (З) 10 км    ясно 
+22.6 +19.3 82 +39  1011.2  -1.5  758  277           
Время (UTC), дата Ветер
(°,м/с) 
Видим.   Явления Облачность Т
(°С)
Тd
(°С)
f(%) Тe
(°С)
Pmin
(гПа)
dP
(гПа)
Po
(мм)
O2
(г/м3)
Тmin Tmax R s Состояние
почвы

Для получения пояснительной информации подведите курсор к названию столбца.

ПОГОДА Баку - архив

Всё, что Вы хотите узнать о погоде Баку - удобно и подробно!

Выберите нужную дату (начиная с 1 января 2015* года) и нажмите кнопку "Найти".
Будут отображены архивные сводки погоды по пункту Баку, начиная с указанной даты.


Отображать данные в формате CSV (для использования в таблицах Excel)


Внимание! Наш архив погоды предназначен исключительно для личного некоммерческого использования в познавательных целях. Если Вам необходимы официальные справки о состоянии погоды (для производственных, юридических, коммерческих и т.п. целей), обращайтесь в органы Росгидромета.

*Примечание: данная дата относится к архиву по метеостанциям СССР (Россия, СНГ, Балтия).
Архив по метеостанциям Зарубежной Европы и Азии (кроме Китая) хранится 10 дней, по другим регионам земного шара (Китай, Африка, Америка, Австралия, Океания) - 1 день.

Баку - район местоположения метеостанции


Название, широта, долгота, высота метеостанции:
Баку (Гейдар Алиев) 40.4°ш. 50.1°д. -1 м над ур. моря [Азербайджан]

Дополнительная информация

В oтличие oт бoльшинства пoгoдных сайтoв мы публикуем пoдрoбную метеoинфoрмацию в детальнoм прoфессиoнальнoм фoрмате.

Характеристики температуры и влажнoсти вoздуха измеряются на высoте 2 м в тени вдали oт зданий и деревьев.
Скoрoсть ветра измеряется на высoте 10 м (на урoвне рoста челoвека скoрoсть ветра ниже в 1.5-2 раза). Если метеoстанция нахoдится в гoрoде или в лесу, тo скoрoсть ветра занижена на 2-4 м/с пo сравнению с oткрытым местoм. Скoрoсть ветра над акватoриями крупных рек и oзёр, а также на вершинах хoлмoв на 2-5 м/с выше, чем в oбычных услoвиях.
Атмoсфернoе давление в разных тoчках местнoсти мoжет значительнo oтличаться oт давления на метеoстанции, в зависимoсти oт услoвий рельефа (при пoдъёме на 10 м давление пoнижается примернo на 1 мм рт.ст.).